Time,TemperatureF,DewpointF,PressureIn,WindDirection,WindDirectionDegrees,WindSpeedMPH,WindSpeedGustMPH,Humidity,HourlyPrecipIn,Conditions,Clouds,dailyrainin,SolarRadiationWatts/m^2,SoftwareType,DateUTC
2013-03-25 00:00:00,30.8,25.1,29.70,NNE,32,6.9,6.9,79,0.00,CLR,,0.00,0.0,WeatherDisplay:10.37,2013-03-25 04:00:00,
2013-03-25 00:05:00,30.8,25.1,29.70,NE,39,8.1,8.1,79,0.00,CLR,,0.00,0.0,WeatherDisplay:10.37,2013-03-25 04:05:00,
2013-03-25 00:10:00,30.9,25.2,29.70,NE,46,11.5,11.5,79,0.00,CLR,,0.00,0.0,WeatherDisplay:10.37,2013-03-25 04:10:00,
2013-03-25 00:15:00,31.0,25.2,29.70,NE,44,11.5,11.5,79,0.00,CLR,,0.00,0.0,WeatherDisplay:10.37,2013-03-25 04:15:00,
2013-03-25 00:20:00,31.0,24.9,29.69,ENE,65,9.2,9.2,78,0.00,CLR,,0.00,0.0,WeatherDisplay:10.37,2013-03-25 04:20:00,
2013-03-25 00:25:00,31.1,25.0,29.69,ENE,67,8.0,8.0,78,0.00,CLR,,0.00,0.0,WeatherDisplay:10.37,2013-03-25 04:25:00,
2013-03-25 00:30:00,31.1,25.0,29.69,NE,46,8.1,8.1,78,0.00,CLR,,0.00,0.0,WeatherDisplay:10.37,2013-03-25 04:30:00,
2013-03-25 00:35:00,31.1,25.0,29.69,NNE,28,9.2,9.2,78,0.00,CLR,,0.00,0.0,WeatherDisplay:10.37,2013-03-25 04:35:00,
2013-03-25 00:40:00,31.2,25.1,29.69,NNE,29,10.4,10.4,78,0.00,CLR,,0.00,0.0,WeatherDisplay:10.37,2013-03-25 04:40:00,
2013-03-25 00:45:00,31.2,25.1,29.69,NE,41,9.2,9.2,78,0.00,CLR,,0.00,0.0,WeatherDisplay:10.37,2013-03-25 04:45:00,
2013-03-25 00:50:00,31.3,25.2,29.69,ENE,57,12.7,12.7,78,0.00,CLR,,0.00,0.0,WeatherDisplay:10.37,2013-03-25 04:50:00,
2013-03-25 00:55:00,31.4,25.3,29.69,NE,43,10.0,10.0,78,0.00,CLR,,0.00,0.0,WeatherDisplay:10.37,2013-03-25 04:55:00,
2013-03-25 01:00:00,31.4,25.3,29.69,NE,36,9.2,9.2,78,0.00,CLR,,0.00,0.0,WeatherDisplay:10.37,2013-03-25 05:00:00,
2013-03-25 01:05:00,31.5,25.1,29.69,NE,51,11.5,11.5,77,0.00,CLR,,0.00,0.0,WeatherDisplay:10.37,2013-03-25 05:05:00,
2013-03-25 01:10:00,31.5,25.1,29.68,NE,51,16.1,16.1,77,0.00,CLR,,0.00,0.0,WeatherDisplay:10.37,2013-03-25 05:10:00,
2013-03-25 01:15:00,31.6,25.2,29.68,NNE,28,7.0,7.0,77,0.00,CLR,,0.00,0.0,WeatherDisplay:10.37,2013-03-25 05:15:00,
2013-03-25 01:20:00,31.6,25.2,29.68,NNE,26,10.4,10.4,77,0.00,CLR,,0.00,0.0,WeatherDisplay:10.37,2013-03-25 05:20:00,
2013-03-25 01:25:00,31.7,25.3,29.68,NE,40,11.5,11.5,77,0.00,CLR,,0.00,0.0,WeatherDisplay:10.37,2013-03-25 05:25:00,
2013-03-25 01:30:00,31.7,25.3,29.68,NE,49,10.4,10.4,77,0.00,CLR,,0.00,0.0,WeatherDisplay:10.37,2013-03-25 05:30:00,
2013-03-25 01:35:00,31.7,25.3,29.68,NNE,19,10.4,10.4,77,0.00,CLR,,0.00,0.0,WeatherDisplay:10.37,2013-03-25 05:35:00,
2013-03-25 01:40:00,31.7,25.3,29.68,ENE,68,11.5,11.5,77,0.00,CLR,,0.00,0.0,WeatherDisplay:10.37,2013-03-25 05:40:00,
2013-03-25 01:45:00,31.8,25.4,29.68,NNE,24,11.5,11.5,77,0.00,CLR,,0.00,0.0,WeatherDisplay:10.37,2013-03-25 05:45:00,
2013-03-25 01:50:00,31.8,25.4,29.68,North,11,6.9,6.9,77,0.00,CLR,,0.00,0.0,WeatherDisplay:10.37,2013-03-25 05:50:00,
2013-03-25 01:55:00,31.8,25.1,29.67,NE,51,10.4,10.4,76,0.00,CLR,,0.00,0.0,WeatherDisplay:10.37,2013-03-25 05:55:00,
2013-03-25 02:00:00,31.9,25.2,29.67,ENE,57,10.4,10.4,76,0.00,CLR,,0.00,0.0,WeatherDisplay:10.37,2013-03-25 06:00:00,
2013-03-25 02:05:00,31.9,25.2,29.67,NNE,19,11.5,11.5,76,0.00,CLR,,0.00,0.0,WeatherDisplay:10.37,2013-03-25 06:05:00,
2013-03-25 02:10:00,31.8,25.4,29.67,NNE,32,9.2,9.2,77,0.00,CLR,,0.00,0.0,WeatherDisplay:10.37,2013-03-25 06:10:00,
2013-03-25 02:15:00,31.8,25.1,29.67,NNE,12,8.1,8.1,76,0.00,CLR,,0.00,0.0,WeatherDisplay:10.37,2013-03-25 06:15:00,
2013-03-25 02:20:00,31.8,25.1,29.67,North,360,6.9,6.9,76,0.00,CLR,,0.00,0.0,WeatherDisplay:10.37,2013-03-25 06:20:00,
2013-03-25 02:25:00,31.8,25.4,29.67,NE,51,9.2,9.2,77,0.00,CLR,,0.00,0.0,WeatherDisplay:10.37,2013-03-25 06:25:00,
2013-03-25 02:30:00,31.8,25.4,29.67,NE,42,10.0,10.0,77,0.00,CLR,,0.00,0.0,WeatherDisplay:10.37,2013-03-25 06:30:00,
2013-03-25 02:35:00,31.8,25.4,29.67,NE,51,11.5,11.5,77,0.00,CLR,,0.00,0.0,WeatherDisplay:10.37,2013-03-25 06:35:00,
2013-03-25 02:40:00,31.8,25.4,29.67,NNE,31,5.0,5.1,77,0.00,CLR,,0.00,0.0,WeatherDisplay:10.37,2013-03-25 06:40:00,
2013-03-25 02:45:00,31.8,25.4,29.67,NE,42,11.5,11.5,77,0.00,CLR,,0.00,0.0,WeatherDisplay:10.37,2013-03-25 06:45:00,
2013-03-25 02:50:00,31.8,25.4,29.67,NE,43,13.8,13.8,77,0.00,CLR,,0.00,0.0,WeatherDisplay:10.37,2013-03-25 06:50:00,
2013-03-25 02:55:00,31.9,25.5,29.66,NE,49,8.1,8.1,77,0.00,CLR,,0.00,0.0,WeatherDisplay:10.37,2013-03-25 06:55:00,
2013-03-25 03:00:00,31.9,25.5,29.66,North,9,9.0,9.0,77,0.00,CLR,,0.00,0.0,WeatherDisplay:10.37,2013-03-25 07:00:00,
2013-03-25 03:05:00,32.0,25.6,29.66,NE,46,11.5,11.5,77,0.00,CLR,,0.00,0.0,WeatherDisplay:10.37,2013-03-25 07:05:00,
2013-03-25 03:10:00,32.0,25.6,29.66,ENE,65,9.2,9.2,77,0.00,CLR,,0.00,0.0,WeatherDisplay:10.37,2013-03-25 07:10:00,
2013-03-25 03:15:00,32.0,25.6,29.66,NE,52,9.0,9.0,77,0.00,CLR,,0.00,0.0,WeatherDisplay:10.37,2013-03-25 07:15:00,
2013-03-25 03:20:00,32.1,26.0,29.65,NE,44,11.5,11.5,78,0.00,CLR,,0.00,0.0,WeatherDisplay:10.37,2013-03-25 07:20:00,
2013-03-25 03:25:00,32.1,26.0,29.65,NNE,13,12.7,12.7,78,0.00,CLR,,0.00,0.0,WeatherDisplay:10.37,2013-03-25 07:25:00,
2013-03-25 03:30:00,32.2,26.1,29.65,NE,42,5.8,6.6,78,0.00,CLR,,0.00,0.0,WeatherDisplay:10.37,2013-03-25 07:30:00,
2013-03-25 03:35:00,32.2,26.1,29.65,ENE,61,10.4,10.4,78,0.00,CLR,,0.00,0.0,WeatherDisplay:10.37,2013-03-25 07:35:00,
2013-03-25 03:40:00,32.3,25.9,29.65,NE,48,10.4,10.4,77,0.00,CLR,,0.00,0.0,WeatherDisplay:10.37,2013-03-25 07:40:00,
2013-03-25 03:45:00,32.3,25.9,29.65,ENE,57,17.3,17.3,77,0.00,CLR,,0.00,0.0,WeatherDisplay:10.37,2013-03-25 07:45:00,
2013-03-25 03:50:00,32.3,26.2,29.65,NE,49,8.1,8.1,78,0.00,CLR,,0.00,0.0,WeatherDisplay:10.37,2013-03-25 07:50:00,
2013-03-25 03:56:00,32.3,26.2,29.65,NE,47,8.1,8.1,78,0.00,CLR,,0.00,0.0,WeatherDisplay:10.37,2013-03-25 07:56:00,
2013-03-25 04:01:00,32.3,26.2,29.65,ENE,64,11.5,11.5,78,0.00,CLR,,0.00,0.0,WeatherDisplay:10.37,2013-03-25 08:01:00,
2013-03-25 04:06:00,32.2,26.1,29.65,NE,49,13.8,13.8,78,0.00,CLR,,0.00,0.0,WeatherDisplay:10.37,2013-03-25 08:06:00,
2013-03-25 04:11:00,32.3,26.2,29.64,NE,37,9.2,9.2,78,0.00,CLR,,0.00,0.0,WeatherDisplay:10.37,2013-03-25 08:11:00,
2013-03-25 04:16:00,32.3,26.2,29.64,ENE,71,12.7,12.7,78,0.00,CLR,,0.00,0.0,WeatherDisplay:10.37,2013-03-25 08:16:00,
2013-03-25 04:21:00,32.3,26.2,29.64,NE,42,7.0,7.0,78,0.00,CLR,,0.00,0.0,WeatherDisplay:10.37,2013-03-25 08:21:00,
2013-03-25 04:26:00,32.1,26.3,29.64,NNE,24,9.0,9.0,79,0.00,CLR,,0.00,0.0,WeatherDisplay:10.37,2013-03-25 08:26:00,
2013-03-25 04:31:00,32.1,26.3,29.64,NE,49,10.4,10.4,79,0.00,CLR,,0.00,0.0,WeatherDisplay:10.37,2013-03-25 08:31:00,
2013-03-25 04:36:00,32.1,26.3,29.64,NE,52,11.5,11.5,79,0.00,CLR,,0.00,0.0,WeatherDisplay:10.37,2013-03-25 08:36:00,
2013-03-25 04:41:00,32.1,26.3,29.64,NE,47,11.5,11.5,79,0.00,CLR,,0.00,0.0,WeatherDisplay:10.37,2013-03-25 08:41:00,
2013-03-25 04:46:00,32.1,26.0,29.64,NE,51,11.5,11.5,78,0.00,CLR,,0.00,0.0,WeatherDisplay:10.37,2013-03-25 08:46:00,
2013-03-25 04:52:00,32.1,26.0,29.64,ENE,60,8.1,8.1,78,0.00,CLR,,0.00,0.0,WeatherDisplay:10.37,2013-03-25 08:52:00,
2013-03-25 04:57:00,32.1,26.0,29.64,NE,40,9.2,9.2,78,0.00,CLR,,0.00,0.0,WeatherDisplay:10.37,2013-03-25 08:57:00,
2013-03-25 05:02:00,32.1,26.0,29.63,East,82,11.0,11.0,78,0.00,CLR,,0.00,0.0,WeatherDisplay:10.37,2013-03-25 09:02:00,
2013-03-25 05:07:00,32.1,26.0,29.63,ENE,67,13.8,13.8,78,0.00,CLR,,0.00,0.0,WeatherDisplay:10.37,2013-03-25 09:07:00,
2013-03-25 05:12:00,32.1,25.7,29.64,NE,49,9.2,9.2,77,0.00,CLR,,0.00,0.0,WeatherDisplay:10.37,2013-03-25 09:12:00,
2013-03-25 05:17:00,32.1,26.0,29.63,NE,54,13.8,13.8,78,0.00,CLR,,0.00,0.0,WeatherDisplay:10.37,2013-03-25 09:17:00,
2013-03-25 05:22:00,32.0,25.9,29.63,NE,47,11.5,11.5,78,0.00,CLR,,0.00,0.0,WeatherDisplay:10.37,2013-03-25 09:22:00,
2013-03-25 05:27:00,32.0,25.9,29.63,NE,56,13.8,13.8,78,0.00,CLR,,0.00,0.0,WeatherDisplay:10.37,2013-03-25 09:27:00,
2013-03-25 05:32:00,32.0,25.9,29.63,NNE,32,13.8,13.8,78,0.00,CLR,,0.00,0.0,WeatherDisplay:10.37,2013-03-25 09:32:00,
2013-03-25 05:37:00,32.0,25.9,29.63,NE,39,13.8,13.8,78,0.00,CLR,,0.00,0.0,WeatherDisplay:10.37,2013-03-25 09:37:00,
2013-03-25 05:42:00,31.9,25.8,29.63,NE,40,19.6,19.6,78,0.00,CLR,,0.00,0.0,WeatherDisplay:10.37,2013-03-25 09:42:00,
2013-03-25 05:47:00,31.9,25.8,29.63,ENE,71,12.7,12.7,78,0.00,CLR,,0.00,0.0,WeatherDisplay:10.37,2013-03-25 09:47:00,
2013-03-25 05:52:00,31.9,26.1,29.63,NE,55,10.4,10.4,79,0.00,CLR,,0.00,0.0,WeatherDisplay:10.37,2013-03-25 09:52:00,
2013-03-25 05:57:00,31.9,26.1,29.63,NE,51,14.0,14.0,79,0.00,CLR,,0.00,0.0,WeatherDisplay:10.37,2013-03-25 09:57:00,
2013-03-25 06:02:00,31.9,26.1,29.63,NNE,22,12.7,12.7,79,0.00,CLR,,0.00,0.0,WeatherDisplay:10.37,2013-03-25 10:02:00,
2013-03-25 06:07:00,31.9,26.1,29.63,NE,51,13.0,13.0,79,0.00,CLR,,0.00,0.0,WeatherDisplay:10.37,2013-03-25 10:07:00,
2013-03-25 06:12:00,31.9,25.8,29.63,NNE,17,16.1,16.1,78,0.00,CLR,,0.00,0.0,WeatherDisplay:10.37,2013-03-25 10:12:00,
2013-03-25 06:17:00,31.9,26.1,29.63,NE,55,9.2,9.2,79,0.00,CLR,,0.00,0.0,WeatherDisplay:10.37,2013-03-25 10:17:00,
2013-03-25 06:22:00,31.9,26.1,29.63,NNE,28,12.7,12.7,79,0.00,CLR,,0.00,0.0,WeatherDisplay:10.37,2013-03-25 10:22:00,
2013-03-25 06:27:00,31.9,26.1,29.63,NE,51,11.5,11.5,79,0.00,CLR,,0.00,0.0,WeatherDisplay:10.37,2013-03-25 10:27:00,
2013-03-25 06:32:00,31.8,26.0,29.63,ENE,78,10.4,10.4,79,0.00,CLR,,0.00,0.0,WeatherDisplay:10.37,2013-03-25 10:32:00,
2013-03-25 06:37:00,31.8,26.0,29.63,ENE,70,19.6,19.6,79,0.00,CLR,,0.00,0.0,WeatherDisplay:10.37,2013-03-25 10:37:00,
2013-03-25 06:42:00,31.9,26.1,29.63,NE,45,11.5,11.5,79,0.00,CLR,,0.00,0.0,WeatherDisplay:10.37,2013-03-25 10:42:00,
2013-03-25 06:48:00,31.9,25.8,29.63,NNE,26,16.1,16.1,78,0.00,CLR,,0.00,0.0,WeatherDisplay:10.37,2013-03-25 10:48:00,
2013-03-25 06:53:00,31.9,25.8,29.64,NE,53,17.3,17.3,78,0.00,CLR,,0.00,0.0,WeatherDisplay:10.37,2013-03-25 10:53:00,
2013-03-25 06:58:00,31.9,25.8,29.64,NE,38,11.5,11.5,78,0.00,CLR,,0.00,0.0,WeatherDisplay:10.37,2013-03-25 10:58:00,
2013-03-25 07:03:00,31.9,25.8,29.64,NE,41,8.1,8.1,78,0.00,CLR,,0.00,0.0,WeatherDisplay:10.37,2013-03-25 11:03:00,
2013-03-25 07:08:00,31.9,25.8,29.64,ENE,67,15.0,15.0,78,0.00,CLR,,0.00,0.0,WeatherDisplay:10.37,2013-03-25 11:08:00,
2013-03-25 07:13:00,31.9,25.8,29.64,ENE,67,12.7,12.7,78,0.00,CLR,,0.00,0.0,WeatherDisplay:10.37,2013-03-25 11:13:00,
2013-03-25 07:18:00,31.9,25.8,29.64,NE,44,11.5,11.5,78,0.00,CLR,,0.00,0.0,WeatherDisplay:10.37,2013-03-25 11:18:00,
2013-03-25 07:23:00,32.0,25.6,29.64,NE,49,11.5,11.5,77,0.00,CLR,,0.00,0.0,WeatherDisplay:10.37,2013-03-25 11:23:00,
2013-03-25 07:28:00,32.0,25.6,29.64,NE,49,10.4,10.4,77,0.00,CLR,,0.00,0.0,WeatherDisplay:10.37,2013-03-25 11:28:00,
2013-03-25 07:33:00,32.0,25.6,29.64,NE,48,15.0,15.0,77,0.00,CLR,,0.00,0.0,WeatherDisplay:10.37,2013-03-25 11:33:00,
2013-03-25 07:38:00,32.1,25.4,29.64,ENE,69,11.5,11.5,76,0.00,CLR,,0.00,0.0,WeatherDisplay:10.37,2013-03-25 11:38:00,
2013-03-25 07:43:00,32.1,25.7,29.65,North,355,11.5,11.5,77,0.00,CLR,,0.00,5.0,WeatherDisplay:10.37,2013-03-25 11:43:00,
2013-03-25 07:48:00,32.1,25.4,29.65,NE,43,8.1,8.1,76,0.00,CLR,,0.00,9.0,WeatherDisplay:10.37,2013-03-25 11:48:00,
2013-03-25 07:53:00,32.1,25.4,29.65,East,84,10.0,10.0,76,0.00,CLR,,0.00,12.0,WeatherDisplay:10.37,2013-03-25 11:53:00,
2013-03-25 07:58:00,32.1,25.7,29.65,ENE,57,8.1,8.1,77,0.00,CLR,,0.00,14.0,WeatherDisplay:10.37,2013-03-25 11:58:00,
2013-03-25 08:03:00,32.1,25.7,29.65,NNE,24,9.2,9.2,77,0.00,CLR,,0.00,18.0,WeatherDisplay:10.37,2013-03-25 12:03:00,
2013-03-25 08:08:00,32.2,25.5,29.65,NE,39,13.8,13.8,76,0.00,CLR,,0.00,21.0,WeatherDisplay:10.37,2013-03-25 12:08:00,
2013-03-25 08:13:00,32.2,25.5,29.65,NE,38,15.0,15.0,76,0.00,CLR,,0.00,25.0,WeatherDisplay:10.37,2013-03-25 12:13:00,
2013-03-25 08:18:00,32.3,25.6,29.65,NE,51,11.5,11.5,76,0.00,CLR,,0.00,33.0,WeatherDisplay:10.37,2013-03-25 12:18:00,
2013-03-25 08:23:00,32.3,25.6,29.65,NNE,28,13.8,13.8,76,0.00,CLR,,0.00,39.0,WeatherDisplay:10.37,2013-03-25 12:23:00,
2013-03-25 08:28:00,32.4,25.7,29.65,NNE,30,11.5,11.5,76,0.00,CLR,,0.00,42.0,WeatherDisplay:10.37,2013-03-25 12:28:00,
2013-03-25 08:33:00,32.4,25.7,29.66,ENE,71,9.2,9.2,76,0.00,CLR,,0.00,47.0,WeatherDisplay:10.37,2013-03-25 12:33:00,
2013-03-25 08:38:00,32.5,25.8,29.65,NNE,12,15.0,15.0,76,0.00,CLR,,0.00,62.0,WeatherDisplay:10.37,2013-03-25 12:38:00,
2013-03-25 08:43:00,32.6,25.9,29.66,ENE,62,12.7,12.7,76,0.00,CLR,,0.00,69.0,WeatherDisplay:10.37,2013-03-25 12:43:00,
2013-03-25 08:48:00,32.7,25.6,29.66,NNE,18,17.3,17.3,75,0.00,CLR,,0.00,70.0,WeatherDisplay:10.37,2013-03-25 12:48:00,
2013-03-25 08:53:00,32.8,25.7,29.66,ENE,69,10.4,10.4,75,0.00,CLR,,0.00,70.0,WeatherDisplay:10.37,2013-03-25 12:53:00,
2013-03-25 08:58:00,32.9,25.8,29.66,NNE,29,15.0,15.0,75,0.00,CLR,,0.00,76.0,WeatherDisplay:10.37,2013-03-25 12:58:00,
2013-03-25 09:03:00,33.0,25.9,29.66,NNE,24,11.5,11.5,75,0.00,OVC,,0.00,84.0,WeatherDisplay:10.37,2013-03-25 13:03:00,
2013-03-25 09:09:00,33.0,25.9,29.66,NNE,24,12.7,12.7,75,0.00,OVC,,0.00,93.0,WeatherDisplay:10.37,2013-03-25 13:09:00,
2013-03-25 09:14:00,33.2,26.1,29.66,ENE,73,13.8,13.8,75,0.00,OVC,,0.00,93.0,WeatherDisplay:10.37,2013-03-25 13:14:00,
2013-03-25 09:19:00,33.3,25.9,29.67,NE,40,8.1,8.1,74,0.00,OVC,,0.00,100.0,WeatherDisplay:10.37,2013-03-25 13:19:00,
2013-03-25 09:24:00,33.4,26.3,29.67,NE,39,13.8,13.8,75,0.00,OVC,,0.00,93.0,WeatherDisplay:10.37,2013-03-25 13:24:00,
2013-03-25 09:29:00,33.4,26.0,29.67,NE,44,13.8,13.8,74,0.00,OVC,,0.00,102.0,WeatherDisplay:10.37,2013-03-25 13:29:00,
2013-03-25 09:34:00,33.5,26.1,29.67,ENE,63,10.4,10.4,74,0.00,OVC,,0.00,102.0,WeatherDisplay:10.37,2013-03-25 13:34:00,
2013-03-25 09:39:00,33.6,26.2,29.67,NE,44,18.4,18.4,74,0.00,OVC,,0.00,107.0,WeatherDisplay:10.37,2013-03-25 13:39:00,
2013-03-25 09:44:00,33.7,26.3,29.67,NE,44,10.0,10.0,74,0.00,OVC,,0.00,104.0,WeatherDisplay:10.37,2013-03-25 13:44:00,
2013-03-25 09:49:00,33.8,26.4,29.67,NNE,22,11.5,11.5,74,0.00,OVC,,0.00,111.0,WeatherDisplay:10.37,2013-03-25 13:49:00,
2013-03-25 09:54:00,33.9,26.2,29.67,NNE,19,15.0,15.0,73,0.00,OVC,,0.00,134.0,WeatherDisplay:10.37,2013-03-25 13:54:00,
2013-03-25 09:59:00,33.9,26.2,29.67,NE,43,10.4,10.4,73,0.00,OVC,,0.00,120.0,WeatherDisplay:10.37,2013-03-25 13:59:00,
2013-03-25 10:04:00,34.1,26.3,29.67,NNE,27,11.5,11.5,73,0.00,OVC,,0.00,120.0,WeatherDisplay:10.37,2013-03-25 14:04:00,
2013-03-25 10:09:00,34.2,26.4,29.67,NE,51,8.1,8.1,73,0.00,OVC,,0.00,118.0,WeatherDisplay:10.37,2013-03-25 14:09:00,
2013-03-25 10:14:00,34.2,26.1,29.67,NE,50,13.8,13.8,72,0.00,OVC,,0.00,113.0,WeatherDisplay:10.37,2013-03-25 14:14:00,
2013-03-25 10:19:00,34.2,26.1,29.67,NE,49,7.0,8.0,72,0.00,OVC,,0.00,105.0,WeatherDisplay:10.37,2013-03-25 14:19:00,
2013-03-25 10:24:00,34.3,25.9,29.67,NE,45,16.1,16.1,71,0.00,OVC,,0.00,100.0,WeatherDisplay:10.37,2013-03-25 14:24:00,
2013-03-25 10:29:00,34.3,25.9,29.68,NE,54,11.5,11.5,71,0.00,OVC,,0.00,111.0,WeatherDisplay:10.37,2013-03-25 14:29:00,
2013-03-25 10:34:00,34.3,25.9,29.68,NNE,32,10.4,10.4,71,0.00,OVC,,0.00,107.0,WeatherDisplay:10.37,2013-03-25 14:34:00,
2013-03-25 10:39:00,34.4,26.0,29.67,NE,35,13.8,13.8,71,0.00,OVC,,0.00,109.0,WeatherDisplay:10.37,2013-03-25 14:39:00,
2013-03-25 10:44:00,34.4,26.0,29.68,NE,39,12.7,12.7,71,0.00,OVC,,0.00,105.0,WeatherDisplay:10.37,2013-03-25 14:44:00,
2013-03-25 10:49:00,34.4,26.3,29.68,NNE,32,13.0,13.0,72,0.00,OVC,,0.00,76.0,WeatherDisplay:10.37,2013-03-25 14:49:00,
2013-03-25 10:54:00,34.3,26.5,29.68,North,10,17.3,17.3,73,0.00,OVC,,0.00,76.0,WeatherDisplay:10.37,2013-03-25 14:54:00,
2013-03-25 10:59:00,34.3,26.5,29.68,NE,37,12.0,22.0,73,0.00,OVC,,0.00,90.0,WeatherDisplay:10.37,2013-03-25 14:59:00,
2013-03-25 11:04:00,34.3,26.5,29.68,NE,38,10.0,20.0,73,0.00,OVC,,0.00,97.0,WeatherDisplay:10.37,2013-03-25 15:04:00,
2013-03-25 11:09:00,34.3,26.2,29.68,NE,35,12.0,23.0,72,0.00,OVC,,0.00,118.0,WeatherDisplay:10.37,2013-03-25 15:09:00,
2013-03-25 11:14:00,34.3,26.2,29.68,NE,34,10.0,17.0,72,0.00,OVC,,0.00,132.0,WeatherDisplay:10.37,2013-03-25 15:14:00,
2013-03-25 11:19:00,34.4,26.0,29.69,NE,35,10.0,21.0,71,0.00,OVC,,0.00,146.0,WeatherDisplay:10.37,2013-03-25 15:19:00,
2013-03-25 11:24:00,34.6,26.2,29.69,NE,36,9.0,15.0,71,0.00,OVC,,0.00,190.0,WeatherDisplay:10.37,2013-03-25 15:24:00,
2013-03-25 11:29:00,34.9,26.4,29.69,NE,34,10.0,16.0,71,0.00,OVC,,0.00,229.0,WeatherDisplay:10.37,2013-03-25 15:29:00,
2013-03-25 11:34:00,35.0,26.2,29.69,NE,41,17.3,17.3,70,0.00,OVC,,0.00,218.0,WeatherDisplay:10.37,2013-03-25 15:34:00,
2013-03-25 11:39:00,35.1,26.3,29.69,NE,44,13.8,13.8,70,0.00,OVC,,0.00,260.0,WeatherDisplay:10.37,2013-03-25 15:39:00,
2013-03-25 11:44:00,35.3,26.5,29.69,ENE,65,17.3,17.3,70,0.00,OVC,,0.00,192.0,WeatherDisplay:10.37,2013-03-25 15:44:00,
2013-03-25 11:49:00,35.2,26.4,29.69,NE,42,15.0,15.0,70,0.00,OVC,,0.00,264.0,WeatherDisplay:10.37,2013-03-25 15:49:00,
2013-03-25 11:54:00,35.3,26.5,29.69,NE,37,9.0,20.0,70,0.00,OVC,,0.00,338.0,WeatherDisplay:10.37,2013-03-25 15:54:00,
2013-03-25 11:59:00,35.7,27.2,29.69,NE,34,9.0,15.0,71,0.00,OVC,,0.00,271.0,WeatherDisplay:10.37,2013-03-25 15:59:00,
2013-03-25 12:04:00,35.9,27.0,29.69,NNE,26,13.0,21.0,70,0.00,OVC,,0.00,264.0,WeatherDisplay:10.37,2013-03-25 16:04:00,
2013-03-25 12:09:00,35.8,26.6,29.69,NNE,23,10.0,22.0,69,0.00,OVC,,0.00,278.0,WeatherDisplay:10.37,2013-03-25 16:09:00,
2013-03-25 12:14:00,36.0,26.8,29.69,NNE,27,9.0,18.0,69,0.00,OVC,,0.00,283.0,WeatherDisplay:10.37,2013-03-25 16:14:00,
2013-03-25 12:19:00,35.9,26.7,29.69,NE,35,10.0,20.0,69,0.00,OVC,,0.00,269.0,WeatherDisplay:10.37,2013-03-25 16:19:00,
2013-03-25 12:24:00,35.9,27.1,29.69,NE,46,12.7,12.7,70,0.00,OVC,,0.00,227.0,WeatherDisplay:10.37,2013-03-25 16:24:00,
2013-03-25 12:29:00,36.1,27.2,29.69,NNE,31,9.0,20.0,70,0.00,OVC,,0.00,311.0,WeatherDisplay:10.37,2013-03-25 16:29:00,
2013-03-25 12:34:00,36.6,27.4,29.69,NE,45,10.4,10.4,69,0.00,CLR,,0.00,388.0,WeatherDisplay:10.37,2013-03-25 16:34:00,
2013-03-25 12:39:00,36.8,27.2,29.69,North,360,20.0,20.0,68,0.00,CLR,,0.00,313.0,WeatherDisplay:10.37,2013-03-25 16:39:00,
2013-03-25 12:44:00,36.6,27.0,29.69,NNE,14,15.0,22.0,68,0.00,CLR,,0.00,434.0,WeatherDisplay:10.37,2013-03-25 16:44:00,
2013-03-25 12:49:00,36.9,27.3,29.70,NNE,22,8.0,17.0,68,0.00,CLR,,0.00,388.0,WeatherDisplay:10.37,2013-03-25 16:49:00,
2013-03-25 12:54:00,37.2,26.9,29.70,NNE,30,13.0,23.0,66,0.00,CLR,,0.00,374.0,WeatherDisplay:10.37,2013-03-25 16:54:00,
2013-03-25 12:59:00,37.1,27.2,29.70,NNE,25,7.0,20.0,67,0.00,CLR,,0.00,311.0,WeatherDisplay:10.37,2013-03-25 16:59:00,
2013-03-25 13:04:00,37.0,26.7,29.70,NNE,22,12.0,18.0,66,0.00,CLR,,0.00,211.0,WeatherDisplay:10.37,2013-03-25 17:04:00,
2013-03-25 13:09:00,36.5,26.2,29.70,NNE,20,12.0,20.0,66,0.00,CLR,,0.00,218.0,WeatherDisplay:10.37,2013-03-25 17:09:00,
2013-03-25 13:14:00,36.5,26.9,29.70,NNE,30,8.0,16.0,68,0.00,CLR,,0.00,211.0,WeatherDisplay:10.37,2013-03-25 17:14:00,
2013-03-25 13:19:00,36.5,26.9,29.70,NE,42,9.2,9.2,68,0.00,CLR,,0.00,183.0,WeatherDisplay:10.37,2013-03-25 17:19:00,
2013-03-25 13:24:00,36.4,26.5,29.70,NE,35,12.0,20.0,67,0.00,CLR,,0.00,181.0,WeatherDisplay:10.37,2013-03-25 17:24:00,
2013-03-25 13:29:00,36.4,26.8,29.70,NE,51,15.0,15.0,68,0.00,CLR,,0.00,190.0,WeatherDisplay:10.37,2013-03-25 17:29:00,
2013-03-25 13:34:00,36.5,26.9,29.71,NNE,25,7.0,14.0,68,0.00,CLR,,0.00,188.0,WeatherDisplay:10.37,2013-03-25 17:34:00,
2013-03-25 13:39:00,36.6,27.0,29.71,North,5,15.0,15.0,68,0.00,CLR,,0.00,199.0,WeatherDisplay:10.37,2013-03-25 17:39:00,
2013-03-25 13:44:00,36.7,27.1,29.71,NNE,30,7.0,14.0,68,0.00,CLR,,0.00,199.0,WeatherDisplay:10.37,2013-03-25 17:44:00,
2013-03-25 13:49:00,36.9,27.7,29.71,NE,36,5.0,13.0,69,0.00,CLR,,0.00,165.0,WeatherDisplay:10.37,2013-03-25 17:49:00,
2013-03-25 13:54:00,37.0,27.4,29.71,NE,36,6.0,11.0,68,0.00,CLR,,0.00,220.0,WeatherDisplay:10.37,2013-03-25 17:54:00,
2013-03-25 13:59:00,37.1,27.5,29.71,NE,34,7.0,13.0,68,0.00,CLR,,0.00,179.0,WeatherDisplay:10.37,2013-03-25 17:59:00,
2013-03-25 14:04:00,37.0,27.4,29.71,NNE,24,8.0,16.0,68,0.00,CLR,,0.00,202.0,WeatherDisplay:10.37,2013-03-25 18:04:00,
2013-03-25 14:09:00,37.0,27.1,29.71,NNE,17,10.0,17.0,67,0.00,CLR,,0.00,260.0,WeatherDisplay:10.37,2013-03-25 18:09:00,
2013-03-25 14:14:00,37.2,27.6,29.71,North,10,11.0,11.0,68,0.00,CLR,,0.00,350.0,WeatherDisplay:10.37,2013-03-25 18:14:00,
2013-03-25 14:19:00,37.6,28.0,29.71,NNE,12,18.0,18.0,68,0.00,CLR,,0.00,338.0,WeatherDisplay:10.37,2013-03-25 18:19:00,
2013-03-25 14:24:00,37.6,28.0,29.71,North,5,17.3,17.3,68,0.00,CLR,,0.00,338.0,WeatherDisplay:10.37,2013-03-25 18:24:00,
2013-03-25 14:29:00,37.6,27.6,29.71,NNE,28,13.8,13.8,67,0.00,CLR,,0.00,371.0,WeatherDisplay:10.37,2013-03-25 18:29:00,
2013-03-25 14:34:00,38.0,28.7,29.72,North,11,6.0,20.0,69,0.00,CLR,,0.00,352.0,WeatherDisplay:10.37,2013-03-25 18:34:00,
2013-03-25 14:39:00,38.0,28.0,29.72,NNE,23,8.0,14.0,67,0.00,CLR,,0.00,304.0,WeatherDisplay:10.37,2013-03-25 18:39:00,
2013-03-25 14:44:00,38.1,27.7,29.72,NNE,25,12.0,16.0,66,0.00,FEW,,0.00,285.0,WeatherDisplay:10.37,2013-03-25 18:44:00,
2013-03-25 14:49:00,38.2,28.6,29.72,NNE,15,7.0,12.0,68,0.00,SCT,,0.00,239.0,WeatherDisplay:10.37,2013-03-25 18:49:00,
2013-03-25 14:54:00,38.1,28.1,29.72,NNE,26,8.0,15.0,67,0.00,FEW,,0.00,297.0,WeatherDisplay:10.37,2013-03-25 18:54:00,
2013-03-25 14:59:00,38.1,28.1,29.72,NNE,21,9.0,14.0,67,0.00,FEW,,0.00,287.0,WeatherDisplay:10.37,2013-03-25 18:59:00,
2013-03-25 15:04:00,38.3,28.6,29.72,NNE,28,3.0,15.0,68,0.00,SCT,,0.00,246.0,WeatherDisplay:10.37,2013-03-25 19:04:00,
2013-03-25 15:09:00,38.4,28.8,29.72,North,360,14.0,14.0,68,0.00,SCT,,0.00,220.0,WeatherDisplay:10.37,2013-03-25 19:09:00,
2013-03-25 15:14:00,38.1,28.1,29.72,NE,34,10.4,10.4,67,0.00,BKN,,0.00,134.0,WeatherDisplay:10.37,2013-03-25 19:14:00,
2013-03-25 15:19:00,38.0,28.0,29.73,NNE,20,7.0,16.0,67,0.00,BKN,,0.00,171.0,WeatherDisplay:10.37,2013-03-25 19:19:00,
2013-03-25 15:24:00,38.1,28.5,29.73,NNE,23,13.0,13.0,68,0.00,BKN,,0.00,160.0,WeatherDisplay:10.37,2013-03-25 19:24:00,
2013-03-25 15:29:00,38.0,28.0,29.73,North,9,18.0,18.0,67,0.00,BKN,,0.00,176.0,WeatherDisplay:10.37,2013-03-25 19:29:00,
2013-03-25 15:34:00,38.0,28.0,29.73,North,350,15.0,15.0,67,0.00,BKN,,0.00,216.0,WeatherDisplay:10.37,2013-03-25 19:34:00,
2013-03-25 15:39:00,38.0,27.6,29.73,NNE,16,10.0,20.0,66,0.00,BKN,,0.00,218.0,WeatherDisplay:10.37,2013-03-25 19:39:00,
2013-03-25 15:44:00,38.2,27.8,29.74,NNE,24,10.0,15.0,66,0.00,BKN,,0.00,192.0,WeatherDisplay:10.37,2013-03-25 19:44:00,
2013-03-25 15:49:00,38.2,27.9,29.74,NNE,23,8.0,14.0,66,0.00,BKN,,0.00,211.0,WeatherDisplay:10.37,2013-03-25 19:49:00,
2013-03-25 15:54:00,38.4,28.0,29.74,NNE,12,10.0,17.0,66,0.00,BKN,,0.00,165.0,WeatherDisplay:10.37,2013-03-25 19:54:00,
2013-03-25 15:59:00,38.2,27.5,29.74,NNE,15,12.0,17.0,65,0.00,BKN,,0.00,137.0,WeatherDisplay:10.37,2013-03-25 19:59:00,
2013-03-25 16:04:00,38.2,27.8,29.74,NNE,15,10.0,14.0,66,0.00,BKN,,0.00,121.0,WeatherDisplay:10.37,2013-03-25 20:04:00,
2013-03-25 16:09:00,38.1,27.4,29.74,NNE,18,8.0,15.0,65,0.00,BKN,,0.00,111.0,WeatherDisplay:10.37,2013-03-25 20:09:00,
2013-03-25 16:14:00,38.1,28.1,29.74,NE,34,11.5,11.5,67,0.00,BKN,,0.00,116.0,WeatherDisplay:10.37,2013-03-25 20:14:00,
2013-03-25 16:19:00,38.1,28.8,29.74,North,5,15.0,15.0,69,0.00,BKN,,0.00,114.0,WeatherDisplay:10.37,2013-03-25 20:19:00,
2013-03-25 16:24:00,37.9,29.0,29.75,North,9,14.0,14.0,70,0.00,BKN,,0.00,135.0,WeatherDisplay:10.37,2013-03-25 20:24:00,
2013-03-25 16:29:00,37.9,29.3,29.75,NNE,15,10.0,14.0,71,0.00,BKN,,0.00,139.0,WeatherDisplay:10.37,2013-03-25 20:29:00,
2013-03-25 16:34:00,37.8,29.2,29.75,NNE,12,13.0,20.0,71,0.00,BKN,,0.00,81.0,WeatherDisplay:10.37,2013-03-25 20:34:00,
2013-03-25 16:39:00,37.6,29.4,29.75,North,11,13.0,21.0,72,0.00,BKN,,0.00,72.0,WeatherDisplay:10.37,2013-03-25 20:39:00,
2013-03-25 16:44:00,37.5,29.6,29.75,North,11,10.0,16.0,73,0.00,BKN,,0.00,74.0,WeatherDisplay:10.37,2013-03-25 20:44:00,
2013-03-25 16:49:00,37.4,29.9,29.75,North,9,10.0,16.0,74,0.00,BKN,,0.00,84.0,WeatherDisplay:10.37,2013-03-25 20:49:00,
2013-03-25 16:54:00,37.4,29.9,29.76,NNE,12,10.0,15.0,74,0.00,BKN,,0.00,84.0,WeatherDisplay:10.37,2013-03-25 20:54:00,
2013-03-25 16:59:00,37.4,29.9,29.76,NNE,19,8.0,15.0,74,0.00,BKN,,0.00,86.0,WeatherDisplay:10.37,2013-03-25 20:59:00,
2013-03-25 17:04:00,37.5,30.0,29.76,NNE,21,7.0,12.0,74,0.00,BKN,,0.00,77.0,WeatherDisplay:10.37,2013-03-25 21:04:00,
2013-03-25 17:09:00,37.5,29.9,29.76,North,9,12.0,14.0,74,0.00,BKN,,0.00,49.0,WeatherDisplay:10.37,2013-03-25 21:09:00,
2013-03-25 17:14:00,37.3,29.4,29.77,North,10,10.0,18.0,73,0.00,BKN,,0.00,67.0,WeatherDisplay:10.37,2013-03-25 21:14:00,
2013-03-25 17:19:00,37.2,29.3,29.77,NNE,12,10.0,20.0,73,0.00,BKN,,0.00,63.0,WeatherDisplay:10.37,2013-03-25 21:19:00,
2013-03-25 17:24:00,37.1,29.2,29.77,NNE,14,8.0,16.0,73,0.00,BKN,,0.00,46.0,WeatherDisplay:10.37,2013-03-25 21:24:00,
2013-03-25 17:29:00,37.0,29.1,29.77,NNE,18,8.0,20.0,73,0.00,BKN,,0.00,46.0,WeatherDisplay:10.37,2013-03-25 21:29:00,
2013-03-25 17:34:00,37.0,29.1,29.78,NNE,21,9.0,20.0,73,0.00,BKN,,0.00,46.0,WeatherDisplay:10.37,2013-03-25 21:34:00,
2013-03-25 17:39:00,37.0,29.5,29.78,NNE,17,7.0,13.0,74,0.00,BKN,,0.00,47.0,WeatherDisplay:10.37,2013-03-25 21:39:00,
2013-03-25 17:44:00,37.0,29.5,29.78,North,11,7.0,18.0,74,0.00,BKN,,0.00,51.0,WeatherDisplay:10.37,2013-03-25 21:44:00,
2013-03-25 17:49:00,37.0,29.5,29.78,NNE,13,9.0,22.0,74,0.00,BKN,,0.00,62.0,WeatherDisplay:10.37,2013-03-25 21:49:00,
2013-03-25 17:54:00,37.0,29.5,29.79,NNE,29,12.7,12.7,74,0.00,BKN,,0.00,51.0,WeatherDisplay:10.37,2013-03-25 21:54:00,
2013-03-25 17:59:00,37.0,29.5,29.79,NNE,28,12.7,12.7,74,0.00,OVC,,0.00,40.0,WeatherDisplay:10.37,2013-03-25 21:59:00,
2013-03-25 18:04:00,36.9,29.4,29.79,NE,51,10.0,10.0,74,0.00,CLR,,0.00,37.0,WeatherDisplay:10.37,2013-03-25 22:04:00,
2013-03-25 18:09:00,37.0,29.5,29.79,NNE,17,10.0,16.0,74,0.00,CLR,,0.00,33.0,WeatherDisplay:10.37,2013-03-25 22:09:00,
2013-03-25 18:14:00,37.0,29.5,29.80,NNE,18,9.0,15.0,74,0.00,CLR,,0.00,39.0,WeatherDisplay:10.37,2013-03-25 22:14:00,
2013-03-25 18:19:00,37.0,29.1,29.80,NNE,20,7.0,13.0,73,0.00,CLR,,0.00,42.0,WeatherDisplay:10.37,2013-03-25 22:19:00,
2013-03-25 18:24:00,37.0,29.1,29.80,NNE,28,13.8,13.8,73,0.00,CLR,,0.00,40.0,WeatherDisplay:10.37,2013-03-25 22:24:00,
2013-03-25 18:29:00,37.0,29.1,29.80,NNE,17,7.0,12.0,73,0.00,CLR,,0.00,33.0,WeatherDisplay:10.37,2013-03-25 22:29:00,
2013-03-25 18:34:00,36.9,29.4,29.81,NNE,14,9.0,14.0,74,0.00,CLR,,0.00,33.0,WeatherDisplay:10.37,2013-03-25 22:34:00,
2013-03-25 18:39:00,36.9,29.4,29.81,NNE,16,6.0,13.0,74,0.00,CLR,,0.00,37.0,WeatherDisplay:10.37,2013-03-25 22:39:00,
2013-03-25 18:44:00,36.9,29.4,29.81,NNE,13,9.0,16.0,74,0.00,CLR,,0.00,21.0,WeatherDisplay:10.37,2013-03-25 22:44:00,
2013-03-25 18:49:00,36.8,29.6,29.82,North,11,12.0,16.0,75,0.00,CLR,,0.00,12.0,WeatherDisplay:10.37,2013-03-25 22:49:00,
2013-03-25 18:54:00,36.6,29.4,29.82,North,9,12.7,12.7,75,0.00,CLR,,0.00,12.0,WeatherDisplay:10.37,2013-03-25 22:54:00,
2013-03-25 18:59:00,36.5,29.7,29.82,North,355,11.5,11.5,76,0.00,CLR,,0.00,11.0,WeatherDisplay:10.37,2013-03-25 22:59:00,
2013-03-25 19:04:00,36.4,29.6,29.83,North,5,8.0,8.0,76,0.00,CLR,,0.00,11.0,WeatherDisplay:10.37,2013-03-25 23:04:00,
2013-03-25 19:09:00,36.4,29.5,29.83,NNE,15,6.0,9.0,76,0.00,CLR,,0.00,9.0,WeatherDisplay:10.37,2013-03-25 23:09:00,
2013-03-25 19:14:00,36.3,29.8,29.83,North,8,7.0,12.0,77,0.00,CLR,,0.00,9.0,WeatherDisplay:10.37,2013-03-25 23:14:00,
2013-03-25 19:19:00,36.2,29.4,29.83,NNE,12,7.0,10.0,76,0.00,CLR,,0.00,11.0,WeatherDisplay:10.37,2013-03-25 23:19:00,
2013-03-25 19:24:00,36.2,29.7,29.84,NNE,18,8.0,13.0,77,0.00,CLR,,0.00,11.0,WeatherDisplay:10.37,2013-03-25 23:24:00,
2013-03-25 19:29:00,36.2,29.7,29.84,NNE,14,10.0,18.0,77,0.00,CLR,,0.00,11.0,WeatherDisplay:10.37,2013-03-25 23:29:00,
2013-03-25 19:34:00,36.2,29.7,29.84,North,10,6.0,10.0,77,0.00,CLR,,0.00,5.0,WeatherDisplay:10.37,2013-03-25 23:34:00,
2013-03-25 19:39:00,36.1,29.9,29.85,North,6,6.0,10.0,78,0.00,CLR,,0.00,0.0,WeatherDisplay:10.37,2013-03-25 23:39:00,
2013-03-25 19:44:00,36.1,29.9,29.85,North,4,8.0,12.0,78,0.00,CLR,,0.00,0.0,WeatherDisplay:10.37,2013-03-25 23:44:00,
2013-03-25 19:49:00,36.0,29.8,29.85,North,5,10.4,10.4,78,0.00,CLR,,0.00,0.0,WeatherDisplay:10.37,2013-03-25 23:49:00,
2013-03-25 19:54:00,35.9,30.0,29.85,NE,35,10.0,10.0,79,0.00,CLR,,0.00,0.0,WeatherDisplay:10.37,2013-03-25 23:54:00,
2013-03-25 19:59:00,35.9,30.0,29.86,NNE,18,8.1,8.1,79,0.00,CLR,,0.00,0.0,WeatherDisplay:10.37,2013-03-25 23:59:00,
2013-03-25 20:04:00,35.8,29.9,29.86,NNE,21,7.0,16.0,79,0.00,CLR,,0.00,0.0,WeatherDisplay:10.37,2013-03-26 00:04:00,
2013-03-25 20:09:00,35.8,29.9,29.86,NNE,15,6.0,8.0,79,0.00,CLR,,0.00,0.0,WeatherDisplay:10.37,2013-03-26 00:09:00,
2013-03-25 20:14:00,35.7,29.8,29.86,North,8,5.0,8.0,79,0.00,CLR,,0.00,0.0,WeatherDisplay:10.37,2013-03-26 00:14:00,
2013-03-25 20:19:00,35.7,29.8,29.87,North,11,7.0,8.0,79,0.00,CLR,,0.00,0.0,WeatherDisplay:10.37,2013-03-26 00:19:00,
2013-03-25 20:24:00,35.7,29.8,29.87,NNE,12,6.0,8.0,79,0.00,CLR,,0.00,0.0,WeatherDisplay:10.37,2013-03-26 00:24:00,
2013-03-25 20:29:00,35.8,29.9,29.87,NNE,14,3.0,9.0,79,0.00,CLR,,0.00,0.0,WeatherDisplay:10.37,2013-03-26 00:29:00,
2013-03-25 20:34:00,35.8,29.9,29.87,NNE,14,3.0,9.0,79,0.00,CLR,,0.00,0.0,WeatherDisplay:10.37,2013-03-26 00:34:00,
2013-03-25 20:39:00,35.8,29.6,29.87,NNE,12,5.0,7.0,78,0.00,CLR,,0.00,0.0,WeatherDisplay:10.37,2013-03-26 00:39:00,
2013-03-25 20:44:00,35.8,29.6,29.88,North,5,8.0,8.0,78,0.00,CLR,,0.00,0.0,WeatherDisplay:10.37,2013-03-26 00:44:00,
2013-03-25 20:49:00,35.9,29.7,29.88,North,9,5.0,5.0,78,0.00,CLR,,0.00,0.0,WeatherDisplay:10.37,2013-03-26 00:49:00,
2013-03-25 20:54:00,36.0,29.8,29.88,NNE,22,8.0,8.0,78,0.00,CLR,,0.00,0.0,WeatherDisplay:10.37,2013-03-26 00:54:00,
2013-03-25 20:59:00,35.9,29.4,29.89,NNE,17,5.0,8.0,77,0.00,CLR,,0.00,0.0,WeatherDisplay:10.37,2013-03-26 00:59:00,
2013-03-25 21:04:00,36.0,29.5,29.89,NNE,14,8.0,12.0,77,0.00,CLR,,0.00,0.0,WeatherDisplay:10.37,2013-03-26 01:04:00,
2013-03-25 21:09:00,36.1,29.5,29.89,North,11,7.0,12.0,77,0.00,CLR,,0.00,0.0,WeatherDisplay:10.37,2013-03-26 01:09:00,
2013-03-25 21:14:00,36.1,29.3,29.89,NNE,14,8.1,8.1,76,0.00,CLR,,0.00,0.0,WeatherDisplay:10.37,2013-03-26 01:14:00,
2013-03-25 21:19:00,36.1,29.3,29.89,NNE,16,6.0,9.0,76,0.00,CLR,,0.00,0.0,WeatherDisplay:10.37,2013-03-26 01:19:00,
2013-03-25 21:24:00,36.1,29.3,29.89,NNE,15,6.0,8.0,76,0.00,CLR,,0.00,0.0,WeatherDisplay:10.37,2013-03-26 01:24:00,
2013-03-25 21:29:00,36.1,29.3,29.90,North,9,3.0,8.0,76,0.00,CLR,,0.00,0.0,WeatherDisplay:10.37,2013-03-26 01:29:00,
2013-03-25 21:34:00,36.0,29.2,29.90,North,5,5.0,5.4,76,0.00,CLR,,0.00,0.0,WeatherDisplay:10.37,2013-03-26 01:34:00,
2013-03-25 21:39:00,36.0,29.5,29.90,NNE,13,8.0,8.0,77,0.00,CLR,,0.00,0.0,WeatherDisplay:10.37,2013-03-26 01:39:00,
2013-03-25 21:44:00,36.0,29.2,29.90,NNE,20,9.2,9.2,76,0.00,CLR,,0.00,0.0,WeatherDisplay:10.37,2013-03-26 01:44:00,
2013-03-25 21:49:00,36.0,29.2,29.90,North,360,8.1,8.1,76,0.00,CLR,,0.00,0.0,WeatherDisplay:10.37,2013-03-26 01:49:00,
2013-03-25 21:54:00,36.0,29.2,29.90,North,5,6.0,9.0,76,0.00,CLR,,0.00,0.0,WeatherDisplay:10.37,2013-03-26 01:54:00,
2013-03-25 21:59:00,36.1,28.9,29.90,North,360,10.4,10.4,75,0.00,CLR,,0.00,0.0,WeatherDisplay:10.37,2013-03-26 01:59:00,
2013-03-25 22:04:00,36.0,29.2,29.91,North,9,6.0,9.0,76,0.00,CLR,,0.00,0.0,WeatherDisplay:10.37,2013-03-26 02:04:00,
2013-03-25 22:09:00,36.0,28.8,29.91,North,7,6.0,10.0,75,0.00,CLR,,0.00,0.0,WeatherDisplay:10.37,2013-03-26 02:09:00,
2013-03-25 22:14:00,36.0,28.8,29.91,North,6,7.0,10.0,75,0.00,CLR,,0.00,0.0,WeatherDisplay:10.37,2013-03-26 02:14:00,
2013-03-25 22:19:00,36.0,28.8,29.91,North,2,5.0,9.0,75,0.00,CLR,,0.00,0.0,WeatherDisplay:10.37,2013-03-26 02:19:00,
2013-03-25 22:24:00,36.0,28.8,29.91,North,358,5.0,10.0,75,0.00,CLR,,0.00,0.0,WeatherDisplay:10.37,2013-03-26 02:24:00,
2013-03-25 22:29:00,36.0,28.8,29.91,North,2,5.0,7.0,75,0.00,CLR,,0.00,0.0,WeatherDisplay:10.37,2013-03-26 02:29:00,
2013-03-25 22:34:00,36.0,28.8,29.92,North,5,9.2,9.2,75,0.00,CLR,,0.00,0.0,WeatherDisplay:10.37,2013-03-26 02:34:00,
2013-03-25 22:39:00,36.0,28.8,29.92,North,9,8.1,8.1,75,0.00,CLR,,0.00,0.0,WeatherDisplay:10.37,2013-03-26 02:39:00,
2013-03-25 22:44:00,36.1,28.6,29.92,North,8,7.0,12.0,74,0.00,CLR,,0.00,0.0,WeatherDisplay:10.37,2013-03-26 02:44:00,
2013-03-25 22:49:00,36.1,28.6,29.92,North,5,6.0,9.0,74,0.00,CLR,,0.00,0.0,WeatherDisplay:10.37,2013-03-26 02:49:00,
2013-03-25 22:54:00,36.1,28.6,29.92,North,2,7.0,10.0,74,0.00,CLR,,0.00,0.0,WeatherDisplay:10.37,2013-03-26 02:54:00,
2013-03-25 22:59:00,36.1,28.6,29.92,North,356,6.0,12.0,74,0.00,CLR,,0.00,0.0,WeatherDisplay:10.37,2013-03-26 02:59:00,
2013-03-25 23:04:00,36.0,28.5,29.92,North,356,3.0,7.0,74,0.00,CLR,,0.00,0.0,WeatherDisplay:10.37,2013-03-26 03:04:00,
2013-03-25 23:09:00,35.9,28.4,29.92,North,350,5.0,6.0,74,0.00,CLR,,0.00,0.0,WeatherDisplay:10.37,2013-03-26 03:09:00,
2013-03-25 23:14:00,35.8,28.3,29.92,NNW,341,6.0,8.0,74,0.00,CLR,,0.00,0.0,WeatherDisplay:10.37,2013-03-26 03:14:00,
2013-03-25 23:19:00,35.7,28.6,29.93,North,355,4.6,4.6,75,0.00,CLR,,0.00,0.0,WeatherDisplay:10.37,2013-03-26 03:19:00,
2013-03-25 23:24:00,35.6,28.5,29.93,NNW,344,4.6,4.6,75,0.00,CLR,,0.00,0.0,WeatherDisplay:10.37,2013-03-26 03:24:00,
2013-03-25 23:29:00,35.5,28.7,29.93,North,355,6.9,6.9,76,0.00,CLR,,0.00,0.0,WeatherDisplay:10.37,2013-03-26 03:29:00,
2013-03-25 23:34:00,35.5,28.7,29.93,NNW,335,5.8,5.8,76,0.00,CLR,,0.00,0.0,WeatherDisplay:10.37,2013-03-26 03:34:00,
2013-03-25 23:39:00,35.4,28.6,29.93,NNE,13,6.9,6.9,76,0.00,CLR,,0.00,0.0,WeatherDisplay:10.37,2013-03-26 03:39:00,
2013-03-25 23:44:00,35.3,28.5,29.93,NNW,346,5.0,7.0,76,0.00,CLR,,0.00,0.0,WeatherDisplay:10.37,2013-03-26 03:44:00,
2013-03-25 23:49:00,35.2,28.7,29.93,NNW,346,4.6,4.6,77,0.00,CLR,,0.00,0.0,WeatherDisplay:10.37,2013-03-26 03:49:00,
2013-03-25 23:54:00,35.2,28.7,29.93,NNW,330,3.0,7.0,77,0.00,CLR,,0.00,0.0,WeatherDisplay:10.37,2013-03-26 03:54:00,
2013-03-25 23:59:00,35.1,28.6,29.93,NW,325,3.0,7.0,77,0.00,CLR,,0.00,0.0,WeatherDisplay:10.37,2013-03-26 03:59:00,